UAL2302 KLAX-KDEN

Flight info

Callsign UAL2302
Flight time 1h 45m
Altitude 37000
Route ORCKA5 LAS J146 DICEE BUMMP SSKII4
Aircraft B737/M-SDE2E3FGHIRWXY/LB1

Departure

Time 2026-04-25 21:54
Airport Los Angeles International Airport (KLAX)

Arrival

Time 2026-04-25 23:39
Airport Denver International Airport (KDEN)
Time Latitude Longitude Altitude Speed Heading
2026-04-25 21:26 33.94167 -118.39786 125 ft 0 kts 83°
2026-04-25 21:31 33.94167 -118.39787 125 ft 0 kts 83°
2026-04-25 21:42 33.94166 -118.39803 121 ft 1 kts 83°
2026-04-25 21:42 33.94165 -118.39828 125 ft 4 kts 125°
2026-04-25 21:43 33.94177 -118.39838 121 ft 0 kts 173°
2026-04-25 21:43 33.94157 -118.39835 125 ft 4 kts 173°
2026-04-25 21:43 33.94130 -118.39831 124 ft 4 kts 173°
2026-04-25 21:43 33.94103 -118.39827 123 ft 4 kts 173°
2026-04-25 21:44 33.94094 -118.39826 122 ft 1 kts 173°
2026-04-25 21:47 33.94091 -118.39826 122 ft 5 kts 177°
2026-04-25 21:47 33.94008 -118.39825 122 ft 13 kts 172°
2026-04-25 21:47 33.93975 -118.39783 123 ft 6 kts 144°
2026-04-25 21:47 33.93912 -118.39674 125 ft 18 kts 84°
2026-04-25 21:48 33.93926 -118.39530 120 ft 17 kts 83°
2026-04-25 21:48 33.93941 -118.39392 122 ft 16 kts 81°
2026-04-25 21:48 33.93954 -118.39261 121 ft 16 kts 82°
2026-04-25 21:48 33.93967 -118.39133 125 ft 15 kts 82°
2026-04-25 21:49 33.93980 -118.39010 125 ft 14 kts 83°
2026-04-25 21:49 33.93992 -118.38891 125 ft 14 kts 82°
2026-04-25 21:49 33.94005 -118.38769 125 ft 16 kts 83°
2026-04-25 21:49 33.94017 -118.38640 125 ft 15 kts 83°
2026-04-25 21:50 33.94030 -118.38520 125 ft 14 kts 82°
2026-04-25 21:50 33.94042 -118.38403 123 ft 14 kts 83°
2026-04-25 21:50 33.94055 -118.38268 122 ft 20 kts 82°
2026-04-25 21:50 33.94067 -118.38156 125 ft 19 kts 86°
2026-04-25 21:51 33.94075 -118.38028 125 ft 3 kts 108°
2026-04-25 21:51 33.94070 -118.38018 125 ft 0 kts 124°
2026-04-25 21:52 33.94033 -118.38001 123 ft 8 kts 165°
2026-04-25 21:53 33.93986 -118.38026 123 ft 8 kts 238°
2026-04-25 21:53 33.93981 -118.38063 125 ft 0 kts 264°
2026-04-25 21:53 33.93971 -118.38169 125 ft 44 kts 262°
2026-04-25 21:54 33.93890 -118.38931 127 ft 135 kts 262°
2026-04-25 21:54 33.93773 -118.40269 570 ft 183 kts 261°
2026-04-25 21:54 33.93609 -118.41904 1320 ft 206 kts 261°
2026-04-25 21:54 33.93422 -118.43670 2246 ft 215 kts 261°
2026-04-25 21:55 33.93237 -118.45490 2749 ft 218 kts 262°
2026-04-25 21:55 33.92859 -118.47317 3328 ft 229 kts 249°
2026-04-25 21:55 33.92269 -118.49096 4423 ft 232 kts 248°
2026-04-25 21:55 33.91639 -118.50893 5474 ft 230 kts 247°
2026-04-25 21:56 33.91016 -118.52669 6530 ft 234 kts 248°
2026-04-25 21:56 33.90593 -118.53884 7037 ft 238 kts 247°
2026-04-25 21:56 33.89715 -118.56346 8199 ft 251 kts 246°
2026-04-25 21:56 33.88978 -118.58338 9026 ft 266 kts 245°
2026-04-25 21:57 33.88212 -118.60374 10219 ft 268 kts 244°
2026-04-25 21:57 33.87379 -118.62456 10986 ft 288 kts 242°
2026-04-25 21:57 33.86096 -118.64399 11630 ft 305 kts 217°
2026-04-25 21:57 33.84209 -118.65573 12662 ft 310 kts 201°
2026-04-25 21:58 33.82072 -118.65963 12968 ft 316 kts 182°
2026-04-25 21:58 33.79887 -118.65382 12989 ft 330 kts 161°
2026-04-25 21:58 33.77985 -118.63780 12991 ft 343 kts 140°
2026-04-25 21:58 33.76619 -118.61372 13007 ft 357 kts 120°
2026-04-25 21:59 33.75945 -118.58466 13010 ft 369 kts 100°
2026-04-25 21:59 33.76117 -118.55348 13049 ft 384 kts 77°
2026-04-25 21:59 33.77286 -118.52415 13911 ft 399 kts 54°
2026-04-25 22:00 33.81867 -118.48859 16098 ft 398 kts 14°
2026-04-25 22:00 33.84530 -118.47856 16999 ft 405 kts 14°
2026-04-25 22:00 33.87210 -118.46722 17882 ft 413 kts 17°
2026-04-25 22:00 33.89903 -118.45415 18599 ft 421 kts 22°
2026-04-25 22:01 33.92410 -118.43571 18919 ft 426 kts 37°
2026-04-25 22:01 33.94582 -118.41105 18955 ft 431 kts 50°
2026-04-25 22:01 33.96321 -118.38201 18989 ft 427 kts 58°
2026-04-25 22:01 33.97398 -118.36210 18962 ft 428 kts 58°
2026-04-25 22:02 33.99588 -118.32202 18998 ft 429 kts 57°
2026-04-25 22:02 34.01241 -118.29255 18984 ft 432 kts 57°
2026-04-25 22:02 34.02947 -118.26246 19450 ft 439 kts 56°
2026-04-25 22:02 34.04679 -118.23200 20437 ft 439 kts 57°
2026-04-25 22:03 34.06411 -118.20151 21306 ft 443 kts 57°
2026-04-25 22:03 34.08165 -118.17053 21973 ft 451 kts 57°
2026-04-25 22:03 34.09953 -118.13890 22668 ft 459 kts 57°
2026-04-25 22:03 34.11766 -118.10680 23395 ft 465 kts 57°
2026-04-25 22:04 34.13601 -118.07427 24033 ft 471 kts 57°
2026-04-25 22:04 34.15451 -118.04149 24713 ft 473 kts 57°
2026-04-25 22:04 34.17308 -118.00856 25427 ft 476 kts 57°
2026-04-25 22:04 34.19179 -117.97532 26037 ft 481 kts 57°
2026-04-25 22:05 34.21071 -117.94165 26589 ft 487 kts 57°
2026-04-25 22:05 34.22983 -117.90761 27180 ft 492 kts 56°
2026-04-25 22:05 34.24914 -117.87325 27620 ft 497 kts 57°
2026-04-25 22:05 34.26834 -117.83904 28236 ft 499 kts 57°
2026-04-25 22:06 34.28783 -117.80415 28849 ft 502 kts 57°
2026-04-25 22:06 34.30745 -117.76898 29378 ft 507 kts 57°
2026-04-25 22:06 34.32726 -117.73348 29879 ft 511 kts 57°
2026-04-25 22:06 34.34727 -117.69763 30310 ft 515 kts 57°
2026-04-25 22:07 34.36769 -117.66168 30697 ft 520 kts 56°
2026-04-25 22:07 34.38163 -117.63806 30942 ft 523 kts 54°
2026-04-25 22:07 34.41050 -117.59021 31431 ft 528 kts 54°
2026-04-25 22:07 34.43233 -117.55426 31755 ft 532 kts 54°
2026-04-25 22:08 34.45426 -117.51800 32214 ft 534 kts 54°
2026-04-25 22:08 34.47613 -117.48159 32733 ft 533 kts 54°
2026-04-25 22:08 34.49781 -117.44528 33265 ft 531 kts 54°
2026-04-25 22:08 34.51942 -117.40892 33754 ft 531 kts 54°
2026-04-25 22:09 34.54074 -117.37297 34125 ft 532 kts 54°
2026-04-25 22:09 34.56235 -117.33648 34470 ft 533 kts 54°
2026-04-25 22:09 34.58398 -117.29992 34836 ft 533 kts 54°
2026-04-25 22:09 34.60567 -117.26322 35211 ft 533 kts 54°
2026-04-25 22:10 34.62732 -117.22658 35576 ft 533 kts 54°
2026-04-25 22:10 34.64897 -117.18991 35916 ft 534 kts 54°
2026-04-25 22:10 34.67062 -117.15318 36175 ft 534 kts 53°
2026-04-25 22:10 34.69226 -117.11645 36531 ft 534 kts 53°
2026-04-25 22:11 34.71389 -117.07970 36871 ft 535 kts 53°
2026-04-25 22:11 34.73569 -117.04263 36805 ft 543 kts 53°
2026-04-25 22:11 34.77952 -116.96797 36810 ft 539 kts 53°
2026-04-25 22:12 34.82241 -116.89471 36827 ft 533 kts 53°
2026-04-25 22:12 34.85124 -116.84538 36818 ft 534 kts 53°
2026-04-25 22:13 34.90850 -116.74725 36815 ft 534 kts 53°
2026-04-25 22:13 34.95554 -116.67728 36827 ft 532 kts 45°
2026-04-25 22:14 34.99781 -116.62283 36798 ft 532 kts 43°
2026-04-25 22:14 35.04897 -116.55750 36791 ft 532 kts 44°
2026-04-25 22:15 35.09953 -116.49146 36777 ft 533 kts 45°
2026-04-25 22:16 35.17488 -116.39154 36802 ft 532 kts 45°
2026-04-25 22:16 35.22464 -116.32537 36790 ft 532 kts 45°
2026-04-25 22:17 35.27470 -116.25876 36772 ft 531 kts 45°
2026-04-25 22:17 35.32465 -116.19218 36764 ft 529 kts 45°
2026-04-25 22:18 35.37443 -116.12571 36775 ft 528 kts 45°
2026-04-25 22:18 35.42405 -116.05933 36785 ft 527 kts 45°
2026-04-25 22:19 35.47321 -115.99340 36795 ft 527 kts 45°
2026-04-25 22:19 35.52262 -115.92702 36781 ft 526 kts 45°
2026-04-25 22:20 35.57191 -115.86062 36784 ft 525 kts 45°
2026-04-25 22:20 35.62104 -115.79436 36784 ft 525 kts 45°
2026-04-25 22:21 35.67003 -115.72779 36805 ft 524 kts 45°
2026-04-25 22:21 35.71872 -115.66083 36785 ft 525 kts 45°
2026-04-25 22:22 35.76728 -115.59386 36797 ft 525 kts 45°
2026-04-25 22:22 35.81592 -115.52674 36809 ft 525 kts 45°
2026-04-25 22:23 35.86437 -115.45983 36807 ft 526 kts 45°
2026-04-25 22:23 35.91303 -115.39241 36790 ft 526 kts 45°
2026-04-25 22:24 35.96160 -115.32497 36796 ft 525 kts 45°
2026-04-25 22:24 36.01009 -115.25752 36804 ft 525 kts 45°
2026-04-25 22:25 36.05837 -115.18976 36761 ft 526 kts 49°
2026-04-25 22:25 36.09635 -115.11243 36758 ft 528 kts 68°
2026-04-25 22:26 36.12181 -115.02722 36762 ft 528 kts 71°
2026-04-25 22:26 36.14680 -114.94178 36699 ft 528 kts 70°
2026-04-25 22:27 36.17266 -114.85671 36693 ft 528 kts 70°
2026-04-25 22:27 36.19851 -114.77224 36675 ft 527 kts 70°
2026-04-25 22:28 36.22463 -114.68729 36662 ft 527 kts 70°
2026-04-25 22:28 36.25068 -114.60241 36641 ft 526 kts 70°
2026-04-25 22:29 36.27653 -114.51762 36664 ft 526 kts 70°
2026-04-25 22:29 36.30230 -114.43277 36640 ft 525 kts 70°
2026-04-25 22:30 36.34067 -114.30606 36645 ft 525 kts 70°
2026-04-25 22:30 36.36198 -114.23543 36648 ft 526 kts 70°
2026-04-25 22:31 36.39193 -114.13588 36643 ft 526 kts 70°
2026-04-25 22:31 36.41723 -114.05147 36658 ft 525 kts 70°
2026-04-25 22:32 36.44264 -113.96648 36668 ft 525 kts 70°
2026-04-25 22:32 36.46796 -113.88152 36680 ft 524 kts 70°
2026-04-25 22:33 36.49325 -113.79642 36687 ft 525 kts 70°
2026-04-25 22:33 36.51851 -113.71114 36689 ft 525 kts 70°
2026-04-25 22:34 36.54355 -113.62633 36691 ft 526 kts 70°
2026-04-25 22:34 36.56867 -113.54097 36702 ft 525 kts 70°
2026-04-25 22:35 36.59369 -113.45566 36717 ft 525 kts 70°
2026-04-25 22:35 36.61870 -113.37015 36712 ft 525 kts 70°
2026-04-25 22:36 36.64361 -113.28464 36727 ft 525 kts 71°
2026-04-25 22:36 36.66831 -113.19912 36745 ft 525 kts 71°
2026-04-25 22:37 36.69297 -113.11340 36767 ft 525 kts 71°
2026-04-25 22:37 36.71740 -113.02821 36791 ft 525 kts 71°
2026-04-25 22:38 36.74197 -112.94232 36810 ft 526 kts 71°
2026-04-25 22:38 36.76655 -112.85611 36792 ft 526 kts 71°
2026-04-25 22:39 36.79100 -112.77005 36781 ft 526 kts 71°
2026-04-25 22:39 36.81539 -112.68395 36767 ft 526 kts 71°
2026-04-25 22:40 36.83953 -112.59842 36738 ft 525 kts 71°
2026-04-25 22:40 36.86374 -112.51237 36742 ft 525 kts 71°
2026-04-25 22:41 36.88797 -112.42603 36725 ft 525 kts 71°
2026-04-25 22:41 36.91217 -112.33985 36735 ft 525 kts 71°
2026-04-25 22:42 36.93638 -112.25366 36730 ft 525 kts 71°
2026-04-25 22:42 36.96050 -112.16749 36720 ft 525 kts 71°
2026-04-25 22:43 36.98454 -112.08121 36712 ft 525 kts 71°
2026-04-25 22:43 37.00848 -111.99495 36713 ft 524 kts 71°
2026-04-25 22:44 37.03224 -111.90910 36685 ft 525 kts 71°
2026-04-25 22:44 37.05610 -111.82263 36712 ft 525 kts 71°
2026-04-25 22:45 37.07990 -111.73606 36665 ft 525 kts 71°
2026-04-25 22:45 37.10363 -111.64944 36661 ft 525 kts 71°
2026-04-25 22:46 37.12733 -111.56269 36724 ft 527 kts 71°
2026-04-25 22:46 37.15097 -111.47585 36709 ft 527 kts 71°
2026-04-25 22:47 37.17456 -111.38887 36678 ft 526 kts 71°
2026-04-25 22:47 37.19781 -111.30276 36682 ft 524 kts 71°
2026-04-25 22:48 37.22118 -111.21602 36650 ft 524 kts 71°
2026-04-25 22:48 37.24458 -111.12926 36637 ft 525 kts 71°
2026-04-25 22:49 37.26801 -111.04239 36597 ft 525 kts 71°
2026-04-25 22:49 37.29135 -110.95568 36642 ft 523 kts 71°
2026-04-25 22:50 37.31459 -110.86956 36657 ft 524 kts 71°
2026-04-25 22:50 37.33805 -110.78276 36642 ft 525 kts 71°
2026-04-25 22:51 37.36150 -110.69577 36635 ft 526 kts 71°
2026-04-25 22:51 37.38499 -110.60859 36632 ft 527 kts 71°
2026-04-25 22:52 37.40848 -110.52135 36633 ft 527 kts 71°
2026-04-25 22:52 37.42802 -110.44867 36639 ft 527 kts 71°
2026-04-25 22:53 37.45545 -110.34651 36636 ft 527 kts 71°
2026-04-25 22:53 37.48669 -110.26340 36676 ft 525 kts 57°
2026-04-25 22:54 37.52518 -110.18525 36664 ft 525 kts 56°
2026-04-25 22:54 37.56360 -110.10687 36673 ft 525 kts 56°
2026-04-25 22:55 37.60100 -110.02764 36692 ft 526 kts 57°
2026-04-25 22:55 37.63807 -109.94787 36696 ft 527 kts 57°
2026-04-25 22:56 37.67510 -109.86793 36691 ft 527 kts 57°
2026-04-25 22:56 37.71199 -109.78826 36700 ft 523 kts 57°
2026-04-25 22:57 37.74874 -109.70868 36675 ft 525 kts 57°
2026-04-25 22:57 37.76689 -109.66939 36780 ft 525 kts 57°
2026-04-25 22:57 37.78528 -109.62954 36771 ft 525 kts 57°
2026-04-25 22:58 37.82231 -109.54917 36763 ft 526 kts 57°
2026-04-25 22:58 37.85886 -109.46959 36748 ft 525 kts 57°
2026-04-25 22:59 37.89532 -109.38986 36718 ft 523 kts 57°
2026-04-25 22:59 37.93179 -109.31007 36699 ft 523 kts 57°
2026-04-25 23:00 37.96825 -109.23008 36698 ft 525 kts 57°
2026-04-25 23:00 38.00483 -109.14960 36702 ft 527 kts 57°
2026-04-25 23:01 38.03523 -109.08251 36692 ft 528 kts 57°
2026-04-25 23:01 38.07772 -108.98860 36676 ft 527 kts 57°
2026-04-25 23:02 38.10802 -108.92080 36692 ft 527 kts 59°
2026-04-25 23:02 38.14133 -108.83775 36711 ft 528 kts 62°
2026-04-25 23:03 38.17341 -108.75387 36695 ft 528 kts 62°
2026-04-25 23:03 38.20578 -108.67008 36699 ft 527 kts 61°
2026-04-25 23:04 38.23836 -108.58659 36704 ft 526 kts 61°
2026-04-25 23:04 38.27071 -108.50373 36719 ft 526 kts 61°
2026-04-25 23:05 38.30322 -108.42013 36701 ft 526 kts 61°
2026-04-25 23:05 38.33561 -108.33650 36712 ft 526 kts 61°
2026-04-25 23:06 38.36795 -108.25281 36752 ft 526 kts 61°
2026-04-25 23:06 38.39994 -108.16978 35738 ft 474 kts 60°
2026-04-25 23:07 38.41249 -108.12831 31279 ft 554 kts 73°
2026-04-25 23:07 38.42345 -108.08448 33897 ft 506 kts 68°
2026-04-25 23:07 38.43754 -108.04350 34228 ft 507 kts 60°
2026-04-25 23:07 38.45419 -108.00412 34361 ft 507 kts 61°
2026-04-25 23:08 38.47096 -107.96455 34787 ft 508 kts 57°
2026-04-25 23:08 38.48888 -107.92562 35110 ft 510 kts 57°
2026-04-25 23:08 38.50645 -107.88620 35521 ft 511 kts 58°
2026-04-25 23:08 38.52316 -107.84610 35970 ft 511 kts 60°
2026-04-25 23:09 38.53903 -107.80557 36271 ft 511 kts 61°
2026-04-25 23:09 38.55450 -107.76455 36655 ft 512 kts 62°
2026-04-25 23:09 38.58522 -107.68158 36719 ft 519 kts 62°
2026-04-25 23:10 38.61607 -107.59863 36720 ft 512 kts 61°
2026-04-25 23:10 38.64678 -107.51651 36735 ft 512 kts 62°
2026-04-25 23:11 38.67777 -107.43408 36748 ft 515 kts 61°
2026-04-25 23:11 38.70916 -107.35149 36733 ft 517 kts 61°
2026-04-25 23:12 38.74057 -107.26852 36760 ft 518 kts 61°
2026-04-25 23:12 38.77162 -107.18607 36760 ft 515 kts 61°
2026-04-25 23:13 38.80254 -107.10366 36750 ft 511 kts 61°
2026-04-25 23:13 38.83320 -107.02174 36778 ft 509 kts 62°
2026-04-25 23:14 38.86388 -106.93967 36740 ft 511 kts 61°
2026-04-25 23:14 38.89418 -106.85823 36212 ft 507 kts 62°
2026-04-25 23:15 38.90937 -106.81734 35647 ft 506 kts 62°
2026-04-25 23:15 38.92455 -106.77655 35018 ft 504 kts 62°
2026-04-25 23:15 38.93959 -106.73587 34479 ft 502 kts 62°
2026-04-25 23:15 38.95451 -106.69543 33976 ft 499 kts 62°
2026-04-25 23:16 38.96927 -106.65538 33480 ft 494 kts 62°
2026-04-25 23:16 38.98392 -106.61568 32976 ft 490 kts 62°
2026-04-25 23:16 38.99846 -106.57627 32513 ft 485 kts 62°
2026-04-25 23:16 39.01280 -106.53726 32093 ft 480 kts 63°
2026-04-25 23:17 39.02703 -106.49848 31651 ft 476 kts 63°
2026-04-25 23:17 39.04108 -106.46006 31217 ft 472 kts 63°
2026-04-25 23:17 39.05498 -106.42199 30802 ft 468 kts 63°
2026-04-25 23:17 39.06871 -106.38429 30410 ft 463 kts 63°
2026-04-25 23:18 39.08233 -106.34687 29982 ft 459 kts 63°
2026-04-25 23:18 39.09562 -106.31034 29520 ft 455 kts 63°
2026-04-25 23:18 39.10894 -106.27367 29063 ft 450 kts 63°
2026-04-25 23:18 39.12214 -106.23728 28580 ft 446 kts 63°
2026-04-25 23:19 39.13521 -106.20121 28109 ft 441 kts 63°
2026-04-25 23:19 39.14812 -106.16558 27674 ft 436 kts 63°
2026-04-25 23:19 39.16084 -106.13041 27319 ft 427 kts 63°
2026-04-25 23:19 39.17333 -106.09590 26876 ft 423 kts 63°
2026-04-25 23:20 39.18572 -106.06166 26416 ft 420 kts 63°
2026-04-25 23:20 39.19797 -106.02774 25954 ft 416 kts 63°
2026-04-25 23:20 39.20997 -105.99447 25493 ft 413 kts 63°
2026-04-25 23:20 39.22201 -105.96103 25039 ft 409 kts 63°
2026-04-25 23:21 39.23396 -105.92780 24506 ft 407 kts 63°
2026-04-25 23:21 39.24582 -105.89477 24046 ft 405 kts 63°
2026-04-25 23:21 39.25762 -105.86188 23626 ft 402 kts 63°
2026-04-25 23:21 39.26933 -105.82920 23142 ft 400 kts 63°
2026-04-25 23:22 39.28096 -105.79672 22656 ft 397 kts 64°
2026-04-25 23:22 39.29244 -105.76457 22223 ft 392 kts 64°
2026-04-25 23:22 39.30380 -105.73275 21778 ft 388 kts 64°
2026-04-25 23:23 39.32610 -105.67027 20936 ft 379 kts 64°
2026-04-25 23:23 39.33715 -105.63981 20725 ft 371 kts 64°
2026-04-25 23:23 39.34816 -105.60975 20297 ft 368 kts 64°
2026-04-25 23:23 39.35908 -105.57994 19883 ft 366 kts 64°
2026-04-25 23:24 39.36993 -105.55027 19450 ft 363 kts 64°
2026-04-25 23:24 39.38062 -105.52094 19020 ft 359 kts 64°
2026-04-25 23:24 39.39120 -105.49187 18674 ft 355 kts 64°
2026-04-25 23:24 39.40170 -105.46299 18220 ft 354 kts 64°
2026-04-25 23:25 39.41186 -105.43482 18030 ft 345 kts 67°
2026-04-25 23:25 39.41752 -105.40528 17672 ft 337 kts 89°
2026-04-25 23:25 39.41805 -105.37517 17338 ft 332 kts 91°
2026-04-25 23:25 39.41804 -105.34551 17027 ft 327 kts 92°
2026-04-25 23:26 39.41795 -105.31592 16652 ft 330 kts 92°
2026-04-25 23:26 39.41790 -105.28604 16286 ft 336 kts 92°
2026-04-25 23:26 39.41794 -105.25551 15877 ft 342 kts 91°
2026-04-25 23:26 39.41806 -105.22473 15454 ft 340 kts 91°
2026-04-25 23:27 39.41820 -105.19468 15080 ft 337 kts 91°
2026-04-25 23:27 39.41831 -105.16451 14686 ft 334 kts 92°
2026-04-25 23:27 39.41839 -105.13449 14282 ft 332 kts 92°
2026-04-25 23:27 39.41849 -105.10484 13893 ft 329 kts 92°
2026-04-25 23:28 39.41859 -105.07544 13548 ft 324 kts 92°
2026-04-25 23:28 39.41870 -105.04697 13417 ft 310 kts 92°
2026-04-25 23:28 39.41879 -105.01956 13263 ft 299 kts 92°
2026-04-25 23:28 39.41888 -104.99305 13158 ft 288 kts 92°
2026-04-25 23:29 39.41895 -104.96757 13031 ft 278 kts 92°
2026-04-25 23:29 39.41908 -104.94301 12895 ft 269 kts 91°
2026-04-25 23:29 39.42065 -104.91896 12646 ft 268 kts 84°
2026-04-25 23:29 39.42296 -104.89480 12393 ft 272 kts 84°
2026-04-25 23:30 39.42528 -104.87038 12146 ft 274 kts 85°
2026-04-25 23:30 39.42757 -104.84602 11871 ft 272 kts 85°
2026-04-25 23:30 39.42978 -104.82181 11605 ft 269 kts 85°
2026-04-25 23:30 39.43191 -104.79796 11344 ft 265 kts 86°
2026-04-25 23:31 39.43400 -104.77439 11094 ft 262 kts 87°
2026-04-25 23:31 39.43743 -104.75157 10849 ft 262 kts 73°
2026-04-25 23:31 39.44543 -104.73047 10634 ft 261 kts 58°
2026-04-25 23:31 39.45728 -104.71274 10409 ft 260 kts 43°
2026-04-25 23:32 39.47213 -104.69967 10193 ft 259 kts 27°
2026-04-25 23:32 39.48921 -104.69195 10042 ft 262 kts 11°
2026-04-25 23:32 39.50731 -104.69018 9991 ft 261 kts 355°
2026-04-25 23:32 39.52512 -104.69448 9987 ft 261 kts 339°
2026-04-25 23:33 39.54262 -104.70066 9969 ft 264 kts 358°
2026-04-25 23:33 39.56075 -104.69720 9997 ft 263 kts
2026-04-25 23:33 39.57888 -104.69359 9980 ft 264 kts
2026-04-25 23:33 39.59727 -104.69088 9862 ft 269 kts
2026-04-25 23:34 39.61611 -104.68986 9601 ft 270 kts 359°
2026-04-25 23:34 39.63475 -104.68968 9355 ft 264 kts 359°
2026-04-25 23:34 39.65246 -104.68959 9131 ft 253 kts 359°
2026-04-25 23:34 39.66981 -104.68943 8853 ft 246 kts
2026-04-25 23:35 39.68667 -104.68924 8555 ft 237 kts
2026-04-25 23:35 39.70267 -104.68905 8288 ft 223 kts
2026-04-25 23:35 39.71775 -104.68888 8029 ft 210 kts
2026-04-25 23:35 39.73198 -104.68872 7783 ft 199 kts
2026-04-25 23:36 39.74560 -104.68857 7625 ft 190 kts
2026-04-25 23:36 39.75437 -104.68847 7523 ft 186 kts
2026-04-25 23:36 39.77148 -104.68827 7206 ft 183 kts
2026-04-25 23:36 39.78425 -104.68812 7016 ft 182 kts
2026-04-25 23:37 39.79656 -104.68798 6812 ft 172 kts
2026-04-25 23:37 39.80822 -104.68797 6516 ft 162 kts
2026-04-25 23:37 39.81890 -104.68778 6329 ft 149 kts
2026-04-25 23:37 39.82905 -104.68779 6108 ft 145 kts
2026-04-25 23:38 39.83940 -104.68759 5907 ft 145 kts
2026-04-25 23:38 39.84941 -104.68739 5728 ft 145 kts
2026-04-25 23:38 39.85938 -104.68725 5511 ft 142 kts
2026-04-25 23:38 39.86909 -104.68714 5360 ft 131 kts
2026-04-25 23:39 39.87718 -104.68705 5358 ft 99 kts
2026-04-25 23:39 39.88285 -104.68699 5362 ft 64 kts
2026-04-25 23:39 39.88552 -104.68605 5362 ft 25 kts 29°
2026-04-25 23:39 39.88597 -104.68546 5362 ft 8 kts 68°
2026-04-25 23:40 39.88575 -104.68491 5363 ft 8 kts 156°
2026-04-25 23:40 39.88478 -104.68483 5362 ft 17 kts 181°
2026-04-25 23:40 39.88363 -104.68484 5361 ft 16 kts 181°
2026-04-25 23:40 39.88250 -104.68485 5360 ft 16 kts 180°
2026-04-25 23:41 39.88094 -104.68487 5359 ft 25 kts 181°
2026-04-25 23:41 39.87930 -104.68489 5358 ft 23 kts 180°
2026-04-25 23:41 39.87773 -104.68490 5357 ft 22 kts 180°
2026-04-25 23:41 39.87621 -104.68492 5356 ft 22 kts 180°
2026-04-25 23:42 39.87473 -104.68492 5357 ft 21 kts 182°
2026-04-25 23:42 39.87329 -104.68497 5357 ft 20 kts 180°
2026-04-25 23:42 39.87189 -104.68495 5358 ft 20 kts 178°
2026-04-25 23:42 39.87057 -104.68492 5359 ft 19 kts 188°
2026-04-25 23:43 39.86929 -104.68500 5360 ft 18 kts 179°
2026-04-25 23:43 39.86807 -104.68497 5361 ft 17 kts 180°
2026-04-25 23:43 39.86688 -104.68503 5362 ft 17 kts 180°
2026-04-25 23:43 39.86574 -104.68503 5363 ft 16 kts 182°
2026-04-25 23:44 39.86429 -104.68506 5363 ft 26 kts 181°
2026-04-25 23:44 39.86278 -104.68508 5364 ft 17 kts 179°
2026-04-25 23:44 39.86162 -104.68510 5365 ft 16 kts 178°
2026-04-25 23:44 39.86052 -104.68509 5365 ft 16 kts 180°
2026-04-25 23:45 39.85945 -104.68512 5368 ft 15 kts 182°
2026-04-25 23:45 39.85843 -104.68512 5368 ft 14 kts 181°
2026-04-25 23:45 39.85745 -104.68513 5368 ft 14 kts 180°
2026-04-25 23:45 39.85687 -104.68411 5374 ft 16 kts 91°
2026-04-25 23:46 39.85687 -104.68274 5378 ft 15 kts 90°
2026-04-25 23:46 39.85735 -104.68172 5377 ft 11 kts 70°
2026-04-25 23:46 39.85737 -104.68105 5376 ft 11 kts 91°
2026-04-25 23:46 39.85736 -104.68004 5376 ft 11 kts 90°
2026-04-25 23:47 39.85735 -104.67907 5377 ft 11 kts 90°
2026-04-25 23:47 39.85735 -104.67812 5378 ft 10 kts 90°
2026-04-25 23:47 39.85757 -104.67733 5377 ft 10 kts 15°
2026-04-25 23:47 39.85801 -104.67732 5377 ft 3 kts
2026-04-25 23:48 39.85804 -104.67732 5377 ft 0 kts